記事タイトル:Comet C/2004 L1 (LINEAR) 

最新の情報は「更新」や「再読み込み」ボタンを押してリロードしてご覧ください。

書き込み欄へ  ヘルプ
お名前: 佐藤 裕久   
LINEARが発見した小惑星状の天体がNEOCPに掲載後、J. Young (Table Mountain天文台,
0.6-m 反射+CCD)は、6月14.3日-14.4日UTの画像から、集光のない5″の丸いコマのある
彗星状であることがわかった。

発見位置は次のとおり、


     2004 UT             R.A. (2000) Decl.       Mag.
     June 12.27759   17 58 16.96   -12 54 06.6   18.0

暫定放物線軌道要素と位置推算表は次のとおり、

Orbital elements:
    C/2004 L1 (LINEAR)
T 2005 Mar. 31.408 TT                                   MPC
q   2.18138              (2000.0)            P               Q
                   Peri.  239.431       -0.945766       -0.079471
                   Node    65.634       -0.000809       +0.970187
e   1.0            Incl.  159.771       -0.324847       +0.228958
From 61 observations 2004 June 12-14.

Ephemeris:
    C/2004 L1 (LINEAR)
Date    TT    R. A. (2000) Decl.     Delta      r     Elong.  Phase   m1
2004 06 14    17 54.68   -12 58.2    2.848    3.848   168.2     3.1  18.1
2004 06 24    17 32.90   -13 23.1    2.771    3.766   166.3     3.7  18.0
2004 07 04    17 10.61   -13 47.8    2.744    3.685   154.0     6.9  17.9
2004 07 14    16 49.15   -14 11.5    2.765    3.604   140.1    10.4  17.8
2004 07 24    16 29.68   -14 34.4    2.826    3.524   126.3    13.4  17.7

(IAUC 8352、MPEC 2004-L58)
[2004年6月15日 5時31分44秒]

この記事への返信をどうぞ。
氏名
E-mail URL



記事一覧に戻る